Regional Weather Roundup
Issued by NWS

Home | Current Version | Previous Version | Graphics & Text | Print | Product List | Glossary Off
Versions: 1 2 3 4 5 6 7 8 9 10 11 12 13 14 15 16 17 18 19 20 21 22 23 24 25 26 27 28 29 30 31 32 33 34 35 36 37 38 39 40 41 42 43 44 45 46 47 48 49 50

000
ASUS43 KMKX 151320
RWRWI

WISCONSIN REGIONAL WEATHER ROUNDUP
NATIONAL WEATHER SERVICE MILWAUKEE/SULLIVAN WI
700 AM CST FRI DEC 15 2017

NOTE: "FAIR" INDICATES FEW OR NO CLOUDS BELOW 12,000 FEET WITH NO
SIGNIFICANT WEATHER AND/OR OBSTRUCTIONS TO VISIBILITY.

WIZ001-002-006>008-014>016-023>028-151400-
NORTHWEST WISCONSIN

CITY           SKY/WX    TMP DP  RH WIND       PRES   REMARKS
SUPERIOR ARPT  CLOUDY    15   6  68 NW13      29.89F WCI   1
ASHLAND        CLOUDY    14   9  80 W12       29.86S WCI   0
HAYWARD        CLOUDY    14   8  77 W3        29.85S
SIREN          CLOUDY    14   8  75 CALM      29.89S
CUMBERLAND     CLOUDY    14   7  73 NW7       29.86F WCI   4
RICE LAKE      CLOUDY    13   8  79 CALM      29.89S
CHETEK         MOCLDY    12   7  79 CALM      29.88S
LADYSMITH      FLURRIES  15  10  80 W9        29.86F WCI   3
EAU CLAIRE     CLOUDY    18  11  74 NW8       29.88F WCI   8
MENOMONIE      CLOUDY    20  14  77 NW6       29.89S WCI  12
NEW RICHMOND   CLOUDY    16  10  78 N5        29.89F WCI   9
OSCEOLA        CLOUDY    17  12  78 N6        29.92F WCI   9
$$

WIZ003>005-009-010-017-018-151400-
NORTH CENTRAL WISCONSIN

CITY           SKY/WX    TMP DP  RH WIND       PRES   REMARKS
MANITOWISH WTR FLURRIES  11   8  87 NW8       29.76F WCI   0
ARBOR VITAE    LGT SNOW  14  10  83 W7        29.77S WCI   4
WOODRUFF       LGT SNOW  14  10  83 W7        29.77S WCI   4
RHINELANDER    CLOUDY    12   6  77 NW8G17    29.77S WCI   0
EAGLE RIVER    FLURRIES  12   7  80 W12       29.74S WCI  -2
LAND O LAKES   LGT SNOW  13   9  86 W6        29.75S WCI   3
PHILLIPS       FLURRIES  11   8  87 W5        29.80S WCI   3
TOMAHAWK       LGT SNOW  11   8  85 NW6       29.80S WCI   2
MEDFORD        FLURRIES  13   9  81 NW8       29.80S WCI   2
MERRILL        FLURRIES  14   9  81 NW8       29.81S WCI   3
$$

WIZ029-030-035-036-043>047-151400-
CENTRAL WISCONSIN

CITY           SKY/WX    TMP DP  RH WIND       PRES   REMARKS
WAUSAU         FLURRIES  16  11  80 NW9       29.80S WCI   4
MOSINEE        FLURRIES  18  14  86 NW13      29.82R WCI   4
MARSHFIELD     CLOUDY    18  13  80 NW12      29.81S WCI   5
STEVENS POINT  CLOUDY    18  13  82 W7        29.83S WCI   8
WAUPACA        FLURRIES  23  17  77 W9        29.84S WCI  13
WAUTOMA        FLURRIES  20  15  81 W12       29.85S WCI   8
WISC RAPIDS    CLOUDY    19  12  74 NW10      29.86S WCI   7
CAMP DOUGLAS   MOCLDY    18  12  79 W6        29.87  WCI   9
$$

WIZ011>013-019>022-031-037>040-048>050-151400-
NORTHEAST WISCONSIN

CITY           SKY/WX    TMP DP  RH WIND       PRES   REMARKS
ANTIGO         CLOUDY    12   7  81 NW14      29.78S WCI  -4
SHAWANO        FLURRIES  20  14  76 W7        29.82R WCI  12
OCONTO         PTCLDY    13   8  81 W8        29.82R WCI   2
STURGEON BAY   CLOUDY    18  12  79 W15       29.79S WCI   3
GREEN BAY      CLOUDY    20  13  74 W9        29.83R WCI   9
MANITOWOC      FLURRIES  20  16  84 W10       29.83S WCI   9
APPLETON       CLOUDY    19  12  73 W12       29.81R WCI   7
CLINTONVILLE   CLOUDY    19  12  73 NW9       29.83R WCI   9
OSHKOSH        CLOUDY    21  16  81 W7        29.83S WCI  12
$$

WIZ032>034-041-042-053>061-151400-
SOUTHWEST WISCONSIN

CITY           SKY/WX    TMP DP  RH WIND       PRES   REMARKS
LA CROSSE      CLOUDY    24  16  71 W8        29.91F WCI  15
SPARTA         CLOUDY    22  14  70 W7        29.90S WCI  14
VIROQUA        CLOUDY    21  16  81 W10       29.88S WCI  10
BOSCOBEL       CLOUDY    26  14  60 W7        29.95R WCI  18
PRAIRIE DU CHI CLOUDY    26  18  69 W6        29.96S WCI  20
PLATTEVILLE    CLOUDY    24  18  78 W12       29.94R WCI  13
$$

WIZ056-057-062-063-064-067-068-151400-
SOUTH CENTRAL WISCONSIN

CITY           SKY/WX    TMP DP  RH WIND       PRES   REMARKS
REEDSBURG      MOCLDY    22  12  66 W8G17     29.88S WCI  13
BARABOO/DELLS  CLOUDY    23  11  61 W15G22    29.87S WCI  10
LONE ROCK      MOCLDY    24  13  62 NW13      29.92R WCI  12
MINERAL POINT  CLOUDY    27  18  69 W12G18    29.89S WCI  16
MADISON        FLURRIES  23  16  74 W7        29.89R WCI  15
MIDDLETON      CLOUDY    25  15  66 NW10G17   29.89R WCI  15
WATERTOWN      FLURRIES  22  18  85 W6        29.87S WCI  14
MONROE         CLOUDY    27  16  63 W16G24    29.89S WCI  14
JANESVILLE     FLURRIES  27  16  63 W14G20    29.90R WCI  15
$$

WIZ051-052-058>065-066-070>072-151400-
SOUTHEAST WISCONSIN

CITY           SKY/WX    TMP DP  RH WIND       PRES   REMARKS
MILWAUKEE      FLURRIES  27  16  63 W15G24    29.87R WCI  15
WAUKESHA       CLOUDY    19  16  86 W12       29.87S WCI   7
MILWAUKEE/TIMM CLOUDY    23  14  68 W12G17    29.87R WCI  12
RACINE         CLOUDY    24  15  68 W12G23    29.89R WCI  13
BURLINGTON     FLURRIES  23  18  83 W7        29.88S WCI  14
KENOSHA        FLURRIES  24  15  68 NW14      29.88R WCI  12
FOND DU LAC    MIX PCPN  22  15  75 W9        29.84S WCI  12
SHEBOYGAN      FLURRIES  21  16  81 W12       29.83S WCI   9
WEST BEND      FLURRIES  21  18  86 W9        29.84S WCI  11
JUNEAU         LGT SNOW  20  16  82 W8        29.87R WCI  11
$$

LSZ147-162-151400-
LAKE SUPERIOR

STATION/POSITION TIME  TEMP    WIND        PRES    WAVE
                       AIR SEA DIR/SP/G            HT/PER
                 (UTC) (F)     (DEG/KT/KT) (MB)    (FT/S)
DEVILS ISLAND    1300   17     290/ 18/ 22 1011.9F
SAXON HARBOR     1240   15                 1010.5S
$$

LMZ867-665-643>646-151400-
LAKE MICHIGAN

STATION/POSITION TIME  TEMP    WIND        PRES    WAVE
                       AIR SEA DIR/SP/G            HT/PER
                 (UTC) (F)     (DEG/KT/KT) (MB)    (FT/S)
NORTHPORT PIER   1303   20     280/  9/ 16 1008.1
KEWAUNEE LAKESHO 1248   20     280/  9/ 14 1008.7S
SHEBOYGAN LAKESH 1300   22     280/ 13/ 15 1011.5R
PORT WASHINGTON  1230   24     290/  6/ 15 1012.2R
MILWAUKEE LAKESH 1300   24     290/ 11/ 16   N/A
KENOSHA   LAKESH 1300   24     300/ 17/ 21 1011.9
$$

TC  - TEMPERATURE IN CELSIUS
VSB - VISIBILITY IN STATUTE MILES
WCI - WIND CHILL INDEX
HX  - HEAT INDEX




USA.gov is the U.S. government's official web portal to all federal, state and local government web resources and services.